Regional Weather Roundup
Issued by NWS

Home | Current Version | Previous Version | Graphics & Text | Print | Product List | Glossary Off
Versions: 1 2 3 4 5 6 7 8 9 10 11 12 13 14 15 16 17 18 19 20 21 22 23 24 25 26 27 28 29 30 31 32 33 34 35 36 37 38 39 40 41 42 43 44 45 46 47 48 49 50

000
ASUS43 KTOP 271159
RWRKS

WEATHER ROUNDUP FOR KANSAS
NATIONAL WEATHER SERVICE GOODLAND KS
700 AM CDT WED MAY 27 2015

NOTE:  "FAIR" INDICATES FEW OR NO CLOUDS BELOW 12,000 FEET WITH NO
SIGNIFICANT WEATHER AND/OR OBSTRUCTIONS TO VISIBILITY.

KSZ001>006-013>018-027>032-041>047-271300-
NORTHWEST KANSAS

CITY           SKY/WX    TMP DP  RH WIND       PRES   REMARKS
GOODLAND       CLOUDY    54  52  93 S8        30.06S
6HR MIN TEMP:  52; 6HR MAX TEMP:  55;

HAYS           MOCLDY    54  46  76 NE6       30.07S
HILL CITY      MOCLDY    52  50  93 CALM      30.07S
6HR MIN TEMP:  49; 6HR MAX TEMP:  53;

RUSSELL        MOCLDY    55  52  89 SE3       30.06R
6HR MIN TEMP:  53; 6HR MAX TEMP:  59;

$$

KSZ061>065-074>080-084>089-271300-
SOUTHWEST KANSAS

CITY           SKY/WX    TMP DP  RH WIND       PRES   REMARKS
DODGE CITY     CLOUDY    60  58  92 CALM      30.06F
6HR MIN TEMP:  57; 6HR MAX TEMP:  62; 6HR PCP:  0.06;

ELKHART          N/A     57  52  84 S9          N/A
GARDEN CITY    CLOUDY    61  56  83 SE8       30.05R
6HR MIN TEMP:  56; 6HR MAX TEMP:  61;

GREAT BEND     PTCLDY    59  52  77 SE3       30.06R
LIBERAL        MOCLDY    61  55  82 S5        30.08R
$$

KSZ066>073-081>083-090>101-271300-
SOUTHEAST KANSAS

CITY           SKY/WX    TMP DP  RH WIND       PRES   REMARKS
CHANUTE        PTCLDY    64  63  96 CALM      30.08R
6HR MIN TEMP:  59; 6HR MAX TEMP:  64;

COFFEYVILLE    CLEAR     62  61  96 NE5       30.06R
6HR MIN TEMP:  61; 6HR MAX TEMP:  66;

HUTCHINSON     PTCLDY    61  54  77 E6        30.06S
6HR MIN TEMP:  58; 6HR MAX TEMP:  67;

NEWTON         PTCLDY    61  52  72 E3        30.08S
PARSONS        CLEAR     63  63 100 CALM      30.08R
6HR MIN TEMP:  61; 6HR MAX TEMP:  65;

WICHITA INTL   MOCLDY    63  60  90 E3        30.05R
6HR MIN TEMP:  59; 6HR MAX TEMP:  65;

WICHITA JABRA  PTCLDY    61  57  87 NE7       30.05R
6HR MIN TEMP:  59; 6HR MAX TEMP:  67;

WINFIELD       PTCLDY    61  59  93 CALM      30.07S
6HR MIN TEMP:  57; 6HR MAX TEMP:  67;

$$

KSZ007>012-019>026-033>040-048>060-102>105-271300-
NORTHEAST KANSAS

CITY           SKY/WX    TMP DP  RH WIND       PRES   REMARKS
CONCORDIA      PTCLDY    56  51  84 W3        30.07R
6HR MIN TEMP:  50; 6HR MAX TEMP:  58;

EMPORIA        CLEAR     59  55  87 CALM      30.07R
6HR MIN TEMP:  56; 6HR MAX TEMP:  62;

LAWRENCE       FAIR      58  56  93 CALM      30.07R
6HR MIN TEMP:  55; 6HR MAX TEMP:  62;

MANHATTAN      CLEAR     55  54  96 CALM      30.07R
6HR MIN TEMP:  51; 6HR MAX TEMP:  59;

OLATHE IND     SUNNY     61  57  87 CALM      30.07R
6HR MIN TEMP:  59; 6HR MAX TEMP:  66;

OLATHE EXE     SUNNY     62  57  83 NW3       30.06R
6HR MIN TEMP:  60; 6HR MAX TEMP:  64;

SALINA         CLEAR     59  55  87 CALM      30.07R
6HR MIN TEMP:  55; 6HR MAX TEMP:  62;

TOPEKA BILLARD CLEAR     58  56  93 CALM      30.07R
6HR MIN TEMP:  56; 6HR MAX TEMP:  64;

TOPEKA FORBES  FAIR      59  55  87 CALM      30.06R
6HR MIN TEMP:  56; 6HR MAX TEMP:  63;

$$



USA.gov is the U.S. government's official web portal to all federal, state and local government web resources and services.